Regional Weather Roundup
Issued by NWS

Home | Current Version | Previous Version | Graphics & Text | Print | Product List | Glossary On
Versions: 1 2 3 4 5 6 7 8 9 10 11 12 13 14 15 16 17 18 19 20 21 22 23 24 25 26 27 28 29 30 31 32 33 34 35 36 37 38 39 40 41 42 43 44 45 46 47 48 49 50
000
ASUS43 KFSD 221702
RWRSD

WEATHER ROUNDUP FOR SOUTH DAKOTA
NATIONAL WEATHER SERVICE SIOUX FALLS SD
1200 PM CDT SUN OCT 22 2017

NOTE: "FAIR" INDICATES FEW OR NO CLOUDS BELOW 12,000 FEET WITH NO
SIGNIFICANT WEATHER AND/OR OBSTRUCTIONS TO VISIBILITY.


SDZ001>005-009-010-012>017-221800-
NORTHWEST AND NORTH CENTRAL SOUTH DAKOTA

CITY           SKY/WX    TMP DP  RH WIND       PRES   REMARKS
BUFFALO          N/A     60  23  24 SW22      29.76F
MOBRIDGE       SUNNY     56  33  42 S12       29.87F
$$

SDZ012>016-024>037-041>051-057-063-072>074-221800-
SOUTHWEST AND SOUTH CENTRAL SOUTH DAKOTA

CITY           SKY/WX    TMP DP  RH WIND       PRES   REMARKS
RAPID CTY ARPT SUNNY     57  23  26 S8        29.93F
PIERRE         SUNNY     50  30  46 SW7       29.95R
CUSTER         SUNNY     47  20  34 W8G22     30.00S
ELLSWORTH AFB  SUNNY     59  20  22 S12       29.92F
PHILIP         SUNNY     57  26  30 SW16      29.95F
PINE RIDGE     SUNNY     59  25  27 SW16      30.01F
SPEARFISH      FAIR      61  27  27 SW13G23   29.90F
WINNER         FAIR      59  31  34 SW16G24   29.98F
$$

SDZ004>011-016>023-039-040-221800-
NORTHEAST SOUTH DAKOTA

CITY           SKY/WX    TMP DP  RH WIND       PRES   REMARKS
ABERDEEN       SUNNY     57  34  41 SW12      29.94F
WATERTOWN      SUNNY     57  33  40 SW17      29.96F
BROOKINGS      SUNNY     58  31  35 SW13      30.00F
SISSETON         N/A     60  33  36 SW14      29.93F
$$

SDZ017-020-022-023-036>040-048>070-221800-
SOUTHEAST SOUTH DAKOTA

CITY           SKY/WX    TMP DP  RH WIND       PRES   REMARKS
SIOUX FALLS    SUNNY     60  35  39 SW7       30.03F
HURON          SUNNY     61  31  32 S16G24    29.97F
MITCHELL       SUNNY     63  30  28 SW16      29.99F
YANKTON        SUNNY     60  36  40 SW8       30.05F
$$

ABBREVIATIONS USED IN REMARKS
   TC - TEMPERATURE IN CELSIUS
  WCI - WIND CHILL INDEX
   HX - HEAT INDEX
  VSB - VISIBILITY




USA.gov is the U.S. government's official web portal to all federal, state and local government web resources and services.